Date String (YYYY-MM-DD hh:mm:ss) UTC,Instrument flags,Ambient pressure (hPa),Sample flow (lpm),Bypass flow (lpm),Sample temperature (°C),Ambient temperature (°C),ASC tube jacket temperature (°C),LED temperature (°C),Box temperature (°C),Sample RH (%),Span deviation,Mass concentration (μg/m³),Mass concentration (μg/m³),Mass concentration (μg/m³)
DateTimeUTC,F1_M11,P_M11,Q1_M11,Q2_M11,T1_M11,T2_M11,T3_M11,T4_M11,T5_M11,U1_M11,ZSPAN_M11,X0_M11,X2_M11,X1_M11
2022-11-27 12:00:00,,0822.6,5.00,0.00,24.9,23.4,00.0,33.8,26.7,18.3,0000.0,0009.24,0004.23,0004.02
2022-11-27 12:01:00,,0822.6,5.00,0.00,24.9,23.4,00.0,33.8,26.7,18.3,0000.0,0009.27,0004.24,0004.03
2022-11-27 12:02:00,,0822.6,5.00,0.00,24.9,23.4,00.0,33.8,26.7,18.3,0000.0,0009.22,0004.26,0004.03
2022-11-27 12:03:00,,0822.6,5.00,0.00,24.9,23.4,00.0,33.8,26.8,18.3,0000.0,0008.64,0004.25,0004.03
2022-11-27 12:04:00,,0822.6,5.00,0.00,24.9,23.4,00.0,33.8,26.7,18.4,0000.0,0008.54,0004.25,0004.01
2022-11-27 12:05:00,,0822.5,4.99,0.00,24.9,23.4,00.0,33.8,26.7,18.4,0000.0,0008.53,0004.23,0003.99
2022-11-27 12:06:00,,0822.6,4.99,0.00,24.9,23.4,00.0,33.8,26.7,18.4,0000.0,0008.46,0004.22,0003.99
2022-11-27 12:07:00,,0822.5,5.00,0.00,24.9,23.4,00.0,33.8,26.7,18.4,0000.0,0008.03,0004.22,0004.00
2022-11-27 12:08:00,,0822.5,5.02,0.00,24.9,23.4,00.0,33.8,26.7,18.4,0000.0,0007.75,0004.20,0004.00
2022-11-27 12:09:00,,0822.5,5.00,0.00,24.8,23.4,00.0,33.8,26.8,18.4,0000.0,0008.06,0004.22,0004.00
2022-11-27 12:10:00,,0822.5,5.00,0.00,24.8,23.4,00.0,33.8,26.7,18.4,0000.0,0007.69,0004.23,0004.02
2022-11-27 12:11:00,,0822.6,4.99,0.00,24.8,23.4,00.0,33.8,26.7,18.4,0000.0,0007.56,0004.22,0004.01
2022-11-27 12:12:00,,0822.6,5.00,0.00,24.8,23.4,00.0,33.8,26.7,18.4,0000.0,0007.51,0004.21,0004.02
2022-11-27 12:13:00,,0822.6,5.00,0.00,24.8,23.4,00.0,33.8,26.7,18.4,0000.0,0007.49,0004.19,0004.01
2022-11-27 12:14:00,,0822.6,5.00,0.00,24.8,23.3,00.0,33.8,26.7,18.4,0000.0,0007.60,0004.20,0004.01
2022-11-27 12:15:00,,0822.6,5.01,0.00,24.8,23.3,00.0,33.8,26.7,18.4,0000.0,0007.56,0004.21,0004.04
2022-11-27 12:16:00,,0822.6,5.01,0.00,24.8,23.3,00.0,33.8,26.7,18.4,0000.0,0007.15,0004.21,0004.05
2022-11-27 12:17:00,,0822.5,4.99,0.00,24.8,23.3,00.0,33.8,26.7,18.4,0000.0,0007.19,0004.21,0004.06
2022-11-27 12:18:00,,0822.5,5.00,0.00,24.8,23.3,00.0,33.8,26.7,18.5,0000.0,0007.26,0004.24,0004.08
2022-11-27 12:19:00,,0822.5,4.99,0.00,24.8,23.3,00.0,33.8,26.7,18.4,0000.0,0007.34,0004.26,0004.09
2022-11-27 12:20:00,,0822.4,5.01,0.00,24.8,23.3,00.0,33.8,26.7,18.5,0000.0,0006.90,0004.26,0004.09
2022-11-27 12:21:00,,0822.4,5.01,0.00,24.8,23.3,00.0,33.7,26.6,18.5,0000.0,0006.48,0004.24,0004.08
2022-11-27 12:22:00,,0822.4,4.99,0.00,24.8,23.3,00.0,33.7,26.6,18.5,0000.0,0006.50,0004.25,0004.09
2022-11-27 12:23:00,,0822.4,4.98,0.00,24.8,23.3,00.0,33.7,26.7,18.5,0000.0,0006.57,0004.26,0004.10
2022-11-27 12:24:00,,0822.4,5.02,0.00,24.8,23.3,00.0,33.7,26.7,18.5,0000.0,0006.45,0004.27,0004.11
2022-11-27 12:25:00,,0822.4,5.00,0.00,24.7,23.3,00.0,33.7,26.7,18.5,0000.0,0006.27,0004.25,0004.10
2022-11-27 12:26:00,,0822.5,4.99,0.00,24.7,23.3,00.0,33.7,26.6,18.5,0000.0,0005.85,0004.27,0004.11
2022-11-27 12:27:00,,0822.4,4.99,0.00,24.7,23.3,00.0,33.7,26.6,18.5,0000.0,0006.00,0004.30,0004.13
2022-11-27 12:28:00,,0822.5,5.01,0.00,24.7,23.3,00.0,33.7,26.6,18.5,0000.0,0006.10,0004.36,0004.16
2022-11-27 12:29:00,,0822.5,5.00,0.00,24.7,23.3,00.0,33.7,26.6,18.5,0000.0,0006.15,0004.38,0004.17
2022-11-27 12:30:00,,0822.5,4.99,0.00,24.7,23.3,00.0,33.7,26.6,18.5,0000.0,0006.18,0004.41,0004.20
2022-11-27 12:31:00,,0822.6,4.99,0.00,24.7,23.3,00.0,33.7,26.6,18.5,0000.0,0006.25,0004.45,0004.22
2022-11-27 12:32:00,,0822.6,5.00,0.00,24.7,23.3,00.0,33.7,26.6,18.5,0000.0,0006.88,0004.50,0004.26
2022-11-27 12:33:00,,0822.6,5.02,0.00,24.7,23.2,00.0,33.7,26.6,18.5,0000.0,0007.50,0004.57,0004.29
2022-11-27 12:34:00,,0822.6,5.00,0.00,24.7,23.2,00.0,33.7,26.6,18.5,0000.0,0007.54,0004.59,0004.32
2022-11-27 12:35:00,,0822.6,5.00,0.00,24.7,23.2,00.0,33.7,26.6,18.5,0000.0,0007.65,0004.63,0004.35
2022-11-27 12:36:00,,0822.6,4.99,0.00,24.7,23.2,00.0,33.7,26.5,18.5,0000.0,0007.97,0004.69,0004.40
2022-11-27 12:37:00,,0822.5,5.00,0.00,24.7,23.2,00.0,33.7,26.5,18.5,0000.0,0008.01,0004.73,0004.43
2022-11-27 12:38:00,,0822.5,5.00,0.00,24.7,23.2,00.0,33.7,26.6,18.5,0000.0,0008.07,0004.75,0004.45
2022-11-27 12:39:00,,0822.5,4.99,0.00,24.7,23.2,00.0,33.7,26.6,18.5,0000.0,0008.06,0004.75,0004.45
2022-11-27 12:40:00,,0822.5,5.00,0.00,24.7,23.2,00.0,33.7,26.6,18.4,0000.0,0008.07,0004.74,0004.44
2022-11-27 12:41:00,,0822.5,5.02,0.00,24.7,23.2,00.0,33.6,26.6,18.4,0000.0,0008.08,0004.73,0004.43
2022-11-27 12:42:00,,0822.5,4.99,0.00,24.7,23.2,00.0,33.6,26.5,18.4,0000.0,0008.18,0004.72,0004.40
2022-11-27 12:43:00,,0822.5,5.00,0.00,24.7,23.2,00.0,33.6,26.5,18.5,0000.0,0007.96,0004.69,0004.38
2022-11-27 12:44:00,,0822.6,4.99,0.00,24.7,23.2,00.0,33.6,26.5,18.5,0000.0,0007.61,0004.66,0004.38
2022-11-27 12:45:00,,0822.6,5.00,0.00,24.7,23.2,00.0,33.6,26.5,18.5,0000.0,0007.61,0004.67,0004.38
2022-11-27 12:46:00,,0822.5,5.01,0.00,24.6,23.2,00.0,33.6,26.6,18.5,0000.0,0007.53,0004.66,0004.38
2022-11-27 12:47:00,,0822.5,5.00,0.00,24.6,23.2,00.0,33.6,26.5,18.5,0000.0,0007.16,0004.64,0004.36
2022-11-27 12:48:00,,0822.5,4.99,0.00,24.6,23.2,00.0,33.6,26.5,18.5,0000.0,0007.09,0004.61,0004.34
2022-11-27 12:49:00,,0822.5,4.99,0.00,24.6,23.2,00.0,33.6,26.5,18.5,0000.0,0006.99,0004.59,0004.33
2022-11-27 12:50:00,,0822.5,5.02,0.00,24.6,23.2,00.0,33.6,26.5,18.5,0000.0,0007.02,0004.60,0004.33
2022-11-27 12:51:00,,0822.4,5.01,0.00,24.6,23.2,00.0,33.6,26.5,18.5,0000.0,0007.06,0004.61,0004.33
2022-11-27 12:52:00,,0822.4,4.99,0.00,24.6,23.1,00.0,33.6,26.5,18.5,0000.0,0007.64,0004.60,0004.35
2022-11-27 12:53:00,,0822.4,4.99,0.00,24.6,23.1,00.0,33.6,26.5,18.5,0000.0,0007.87,0004.60,0004.36
2022-11-27 12:54:00,,0822.4,5.00,0.00,24.6,23.1,00.0,33.6,26.5,18.5,0000.0,0007.88,0004.63,0004.38
2022-11-27 12:55:00,,0822.5,5.01,0.00,24.6,23.1,00.0,33.6,26.5,18.5,0000.0,0007.86,0004.62,0004.36
2022-11-27 12:56:00,,0822.5,5.01,0.00,24.6,23.1,00.0,33.6,26.5,18.5,0000.0,0007.91,0004.63,0004.34
2022-11-27 12:57:00,,0822.4,4.99,0.00,24.6,23.1,00.0,33.6,26.5,18.5,0000.0,0007.96,0004.66,0004.34
2022-11-27 12:58:00,,0822.4,5.00,0.00,24.6,23.1,00.0,33.6,26.5,18.5,0000.0,0008.01,0004.67,0004.33
2022-11-27 12:59:00,,0822.4,4.99,0.00,24.6,23.1,00.0,33.6,26.5,18.5,0000.0,0008.26,0004.67,0004.33
